{"data":{"norad_id":57079,"epoch":"2026-05-25T01:31:51.413664Z","epoch_age_seconds":76372,"freshness":"FRESH","line1":"1 57079U 23088AH  26145.06378951  .00001316  00000+0  57339-4 0  9997","line2":"2 57079  43.0064  24.5650 0001365 268.3672  91.7023 15.27581871162183","mean_motion":15.27581871,"eccentricity":0.0001365,"inclination_deg":43.0064,"raan_deg":24.565,"arg_perigee_deg":268.3672,"mean_anomaly_deg":91.7023,"bstar":5.7339e-5,"rev_number":16218,"period_min":94.266633254644,"perigee_km":482.10694246091,"apogee_km":483.98004473566,"semimajor_km":6861.1804935983,"source":"CELESTRAK","updated_at":"2026-05-25T13:38:18.215146Z"}}